This is the latest recevied weather packets stored in our database for station/object FW0727. If no packets are shown the sender has not sent any weather packets the latest 10 day(s).
| Time | Temp. | Humidity | Pressure | Rain* | Wind** | Luminosity | Snow |
|---|---|---|---|---|---|---|---|
| 1787734155 | 23.33° C | 44% | 1015.7 hPa | - | - | - | - |
| 1787734154 | 23.33° C | 44% | 1015.7 hPa | - | - | - | - |
| 1787733801 | 22.78° C | 44% | 1015.6 hPa | - | - | - | - |
| 1787733449 | 23.33° C | 45% | 1015.6 hPa | - | - | - | - |
| 1787732438 | 22.22° C | 47% | 1015.7 hPa | - | - | - | - |
| 1787732093 | 22.22° C | 48% | 1015.7 hPa | - | - | - | - |
| 1787731418 | 21.11° C | 50% | 1015.8 hPa | - | - | - | - |
| 1787730416 | 21.11° C | 50% | 1015.8 hPa | - | - | - | - |
| 1787730063 | 20.56° C | 51% | 1015.7 hPa | - | - | - | - |
| 1787728383 | 20.56° C | 51% | 1015.5 hPa | - | - | - | - |
| 1787728030 | 20.56° C | 53% | 1015.5 hPa | - | - | - | - |
| 1787727349 | 20° C | 54% | 1015.3 hPa | - | - | - | - |
| 1787726997 | 20° C | 55% | 1015.3 hPa | - | - | - | - |
| 1787726644 | 19.44° C | 55% | 1015.2 hPa | - | - | - | - |
| 1787725968 | 19.44° C | 56% | 1015.2 hPa | - | - | - | - |
| 1787725617 | 19.44° C | 56% | 1015.2 hPa | - | - | - | - |
| 1787725263 | 19.44° C | 56% | 1015.3 hPa | - | - | - | - |
| 1787724911 | 19.44° C | 56% | 1015.3 hPa | - | - | - | - |
| 1787724558 | 19.44° C | 56% | 1015.3 hPa | - | - | - | - |
| 1787723878 | 19.44° C | 56% | 1015.4 hPa | - | - | - | - |
| 1787723526 | 19.44° C | 56% | 1015.3 hPa | - | - | - | - |
| 1787723174 | 19.44° C | 57% | 1015.2 hPa | - | - | - | - |
| 1787722822 | 19.44° C | 57% | 1015.1 hPa | - | - | - | - |
| 1787722470 | 19.44° C | 57% | 1015.1 hPa | - | - | - | - |
| 1787722117 | 18.89° C | 57% | 1015.1 hPa | - | - | - | - |
* Rain since midnight (hover to see other rain measurements)
** Current wind speed in m/s (hover to see current wind gust speed)